| time (UTC) | temp C | wind direction | speed KPH | gust KPH | rain 1hr cm | rain 24hr cm | rain mn cm | humidity % | barometer mb |
| 20260507144431 | 15 | 0.0 | 0.0 | 0.00 | 0.00 | 0.00 | 39 | 1018.8 | |
| 20260507141431 | 15 | 0.0 | 0.0 | 0.00 | 0.00 | 0.00 | 39 | 1019.1 | |
| 20260507134430 | 15 | 0.0 | 0.0 | 0.00 | 0.00 | 0.00 | 38 | 1019.4 | |
| 20260507131429 | 15 | 0.0 | 0.0 | 0.00 | 0.00 | 0.00 | 38 | 1019.7 | |
| 20260507124430 | 15 | 0.0 | 0.0 | 0.00 | 0.00 | 0.00 | 37 | 1020.1 | |
| 20260507121429 | 15 | 0.0 | 0.0 | 0.00 | 0.00 | 0.00 | 37 | 1020.7 | |
| 20260507114429 | 15 | 0.0 | 0.0 | 0.00 | 0.00 | 0.00 | 36 | 1020.6 | |
| 20260507111431 | 15 | 0.0 | 0.0 | 0.00 | 0.00 | 0.00 | 35 | 1020.4 | |
| 20260507104431 | 16 | 0.0 | 0.0 | 0.00 | 0.00 | 0.00 | 35 | 1020.3 | |
| 20260507101431 | 16 | 0.0 | 0.0 | 0.00 | 0.00 | 0.00 | 34 | 1020.2 | |
| 20260507094430 | 16 | 0.0 | 0.0 | 0.00 | 0.00 | 0.00 | 34 | 1019.9 | |
| 20260507091430 | 16 | 0.0 | 0.0 | 0.00 | 0.00 | 0.00 | 34 | 1019.6 | |
| 20260507084429 | 16 | 0.0 | 0.0 | 0.00 | 0.00 | 0.00 | 33 | 1019.2 | |
| 20260507081429 | 16 | 0.0 | 0.0 | 0.00 | 0.00 | 0.00 | 32 | 1019.3 | |
| 20260507074431 | 16 | 0.0 | 0.0 | 0.00 | 0.00 | 0.00 | 32 | 1018.7 | |
| 20260507071430 | 16 | 0.0 | 0.0 | 0.00 | 0.00 | 0.00 | 31 | 1018.4 | |
| 20260507064428 | 16 | 0.0 | 0.0 | 0.00 | 0.00 | 0.00 | 33 | 1017.8 | |
| 20260507061429 | 17 | 0.0 | 0.0 | 0.00 | 0.00 | 0.00 | 35 | 1017.6 | |
| 20260507054428 | 17 | 0.0 | 0.0 | 0.00 | 0.00 | 0.00 | 35 | 1017.6 | |
| 20260507051430 | 17 | 0.0 | 0.0 | 0.00 | 0.00 | 0.00 | 34 | 1017.5 | |
| 20260507044428 | 17 | 0.0 | 0.0 | 0.00 | 0.00 | 0.00 | 35 | 1017.3 | |
| 20260507041428 | 17 | 0.0 | 0.0 | 0.00 | 0.00 | 0.00 | 35 | 1017.0 | |
| 20260507034428 | 17 | 0.0 | 0.0 | 0.00 | 0.00 | 0.00 | 37 | 1016.6 | |
| 20260507031428 | 18 | 0.0 | 0.0 | 0.00 | 0.00 | 0.00 | 42 | 1016.3 | |
| 20260507024428 | 17 | 0.0 | 0.0 | 0.00 | 0.00 | 0.00 | 43 | 1016.3 | |
| 20260507021428 | 17 | 0.0 | 0.0 | 0.00 | 0.00 | 0.00 | 43 | 1016.6 | |
| 20260507014428 | 17 | 0.0 | 0.0 | 0.00 | 0.00 | 0.00 | 42 | 1016.7 | |
| 20260507011428 | 17 | 0.0 | 0.0 | 0.00 | 0.00 | 0.00 | 42 | 1017.0 | |
| 20260507004428 | 17 | 0.0 | 0.0 | 0.00 | 0.00 | 0.00 | 42 | 1016.7 | |
| 20260507001428 | 17 | 0.0 | 0.0 | 0.00 | 0.00 | 0.00 | 46 | 1016.4 | |
| 20260506234428 | 16 | 0.0 | 0.0 | 0.00 | 0.00 | 0.00 | 46 | 1016.6 | |
| 20260506231427 | 15 | 0.0 | 0.0 | 0.00 | 0.00 | 0.00 | 48 | 1016.7 | |
| 20260506224427 | 14 | 0.0 | 0.0 | 0.00 | 0.00 | 0.00 | 49 | 1016.8 | |
| 20260506221428 | 14 | 0.0 | 0.0 | 0.00 | 0.00 | 0.00 | 50 | 1016.8 | |
| 20260506214427 | 15 | 0.0 | 0.0 | 0.00 | 0.00 | 0.00 | 50 | 1016.6 | |
| 20260506211427 | 15 | 0.0 | 0.0 | 0.00 | 0.00 | 0.00 | 49 | 1015.3 | |
| 20260506204428 | 15 | 0.0 | 0.0 | 0.00 | 0.00 | 0.00 | 47 | 1014.1 | |
| 20260506201427 | 15 | 0.0 | 0.0 | 0.00 | 0.00 | 0.00 | 47 | 1013.9 | |
| 20260506194427 | 15 | 0.0 | 0.0 | 0.00 | 0.00 | 0.00 | 47 | 1013.7 | |
| 20260506191427 | 16 | 0.0 | 0.0 | 0.00 | 0.00 | 0.00 | 47 | 1013.6 | |
| 20260506184427 | 16 | 0.0 | 0.0 | 0.00 | 0.00 | 0.00 | 46 | 1013.6 | |
| 20260506181429 | 16 | 0.0 | 0.0 | 0.00 | 0.00 | 0.00 | 46 | 1013.6 | |
| 20260506174428 | 16 | 0.0 | 0.0 | 0.00 | 0.00 | 0.00 | 45 | 1013.6 | |
| 20260506171427 | 17 | 0.0 | 0.0 | 0.00 | 0.00 | 0.00 | 44 | 1013.5 | |
| 20260506164428 | 17 | 0.0 | 0.0 | 0.00 | 0.00 | 0.00 | 44 | 1013.9 | |
| 20260506161428 | 17 | 0.0 | 0.0 | 0.00 | 0.00 | 0.00 | 46 | 1014.4 | |
| 20260506154426 | 17 | 0.0 | 0.0 | 0.00 | 0.00 | 0.00 | 46 | 1014.4 | |
| 20260506151426 | 16 | 0.0 | 0.0 | 0.00 | 0.00 | 0.00 | 49 | 1013.9 |